When you browse on this site, cookies collect data to enhance your experience and personalize the content and advertising you see.
Visit our Privacy Policy to learn more. By continuing to use the site, you agree to this use of cookies and data.
  • In Austria
  • List of Countries
  • For 7 days
  • Water Temperature
  • Satellite Maps
  • Weather Map
  • News
  • Weather Widgets
  • user-avatar
    Login

    Hourly Weather Darwin

    Today, 25 May, Saturday

    Time Temperature Precipitation Wind Pressure Humidity
    00:00 +27°C° 0 mm 1 mps 760 mmHg 59%
    01:00 +27°C° 0 mm 2 mps 759 mmHg 61%
    02:00 +27°C° 0 mm 2 mps 759 mmHg 63%
    03:00 +26°C° 0 mm 2 mps 759 mmHg 67%
    04:00 +26°C° 0 mm 2 mps 759 mmHg 69%
    05:00 +26°C° 0 mm 2 mps 759 mmHg 72%
    06:00 +25°C° 0 mm 2 mps 759 mmHg 75%
    07:00 +27°C° 0 mm 3 mps 760 mmHg 70%
    08:00 +28°C° 0 mm 3 mps 760 mmHg 66%
    09:00 +30°C° 0 mm 4 mps 760 mmHg 60%
    10:00 +33°C° 0 mm 3 mps 760 mmHg 53%
    11:00 +34°C° 0 mm 3 mps 759 mmHg 46%
    12:00 +36°C° 0 mm 3 mps 759 mmHg 39%
    13:00 +37°C° 0 mm 3 mps 758 mmHg 38%
    14:00 +37°C° 0 mm 3 mps 758 mmHg 36%
    15:00 +37°C° 0 mm 3 mps 757 mmHg 35%
    16:00 +36°C° 0 mm 3 mps 757 mmHg 40%
    17:00 +34°C° 0 mm 3 mps 757 mmHg 46%
    18:00 +33°C° 0 mm 3 mps 757 mmHg 51%
    19:00 +31°C° 0 mm 2 mps 758 mmHg 56%
    20:00 +30°C° 0 mm 2 mps 758 mmHg 60%
    21:00 +29°C° 0 mm 1 mps 759 mmHg 65%
    22:00 +28°C° 0.1 mm 1 mps 759 mmHg 67%
    23:00 +28°C° 0.1 mm 1 mps 759 mmHg 69%

    Tomorrow, 26 May, Sunday

    Time Temperature Precipitation Wind Pressure Humidity
    00:00 +28°C° 0.1 mm 1 mps 759 mmHg 72%
    01:00 +27°C° 0.5 mm 2 mps 759 mmHg 74%
    02:00 +27°C° 0.5 mm 3 mps 759 mmHg 76%
    03:00 +27°C° 0.5 mm 3 mps 759 mmHg 78%
    04:00 +26°C° 0.2 mm 3 mps 759 mmHg 80%
    05:00 +26°C° 0.2 mm 4 mps 759 mmHg 81%
    06:00 +25°C° 0.2 mm 4 mps 759 mmHg 83%
    07:00 +27°C° 0 mm 4 mps 759 mmHg 76%
    08:00 +28°C° 0 mm 4 mps 759 mmHg 70%
    09:00 +29°C° 0 mm 4 mps 760 mmHg 63%
    10:00 +32°C° 0 mm 4 mps 759 mmHg 53%
    11:00 +34°C° 0 mm 4 mps 759 mmHg 42%
    12:00 +36°C° 0 mm 4 mps 758 mmHg 32%
    13:00 +37°C° 0 mm 4 mps 758 mmHg 32%
    14:00 +37°C° 0 mm 4 mps 757 mmHg 31%
    15:00 +37°C° 0 mm 4 mps 757 mmHg 31%
    16:00 +36°C° 0 mm 4 mps 757 mmHg 35%
    17:00 +34°C° 0 mm 3 mps 757 mmHg 40%
    18:00 +31°C° 0 mm 3 mps 757 mmHg 44%
    19:00 +31°C° 0 mm 3 mps 758 mmHg 46%
    20:00 +30°C° 0 mm 3 mps 758 mmHg 47%
    21:00 +30°C° 0 mm 2 mps 759 mmHg 49%
    22:00 +29°C° 0 mm 2 mps 759 mmHg 49%
    23:00 +29°C° 0 mm 2 mps 759 mmHg 49%

    Day after tomorrow, 27 May, Monday

    Time Temperature Precipitation Wind Pressure Humidity
    00:00 +29°C° 0 mm 2 mps 759 mmHg 50%
    01:00 +28°C° 0 mm 2 mps 759 mmHg 51%
    02:00 +27°C° 0 mm 3 mps 759 mmHg 53%
    03:00 +26°C° 0 mm 3 mps 759 mmHg 55%
    04:00 +26°C° 0 mm 3 mps 759 mmHg 58%
    05:00 +25°C° 0 mm 4 mps 759 mmHg 61%
    06:00 +25°C° 0 mm 4 mps 759 mmHg 65%
    07:00 +26°C° 0 mm 4 mps 759 mmHg 59%
    08:00 +28°C° 0 mm 4 mps 760 mmHg 54%
    09:00 +30°C° 0 mm 5 mps 760 mmHg 48%
    10:00 +32°C° 0 mm 5 mps 760 mmHg 41%
    11:00 +34°C° 0 mm 5 mps 760 mmHg 35%
    12:00 +36°C° 0 mm 5 mps 759 mmHg 28%
    13:00 +36°C° 0 mm 5 mps 759 mmHg 28%
    14:00 +36°C° 0 mm 4 mps 758 mmHg 28%
    15:00 +36°C° 0 mm 4 mps 757 mmHg 28%
    16:00 +35°C° 0 mm 3 mps 757 mmHg 32%
    17:00 +33°C° 0 mm 3 mps 757 mmHg 35%
    18:00 +31°C° 0 mm 3 mps 758 mmHg 39%
    19:00 +30°C° 0 mm 3 mps 758 mmHg 41%
    20:00 +29°C° 0 mm 3 mps 759 mmHg 43%
    21:00 +28°C° 0 mm 3 mps 759 mmHg 44%
    22:00 +28°C° 0 mm 4 mps 759 mmHg 46%
    23:00 +27°C° 0 mm 4 mps 760 mmHg 47%

    28 May, Tuesday

    Time Temperature Precipitation Wind Pressure Humidity
    00:00 +27°C° 0 mm 4 mps 760 mmHg 49%
    01:00 +26°C° 0 mm 4 mps 759 mmHg 50%
    02:00 +26°C° 0 mm 4 mps 759 mmHg 51%
    03:00 +25°C° 0 mm 5 mps 759 mmHg 52%
    04:00 +25°C° 0 mm 5 mps 759 mmHg 53%
    05:00 +23°C° 0 mm 5 mps 759 mmHg 54%
    06:00 +23°C° 0 mm 5 mps 760 mmHg 55%
    07:00 +24°C° 0 mm 6 mps 760 mmHg 53%
    08:00 +27°C° 0 mm 6 mps 760 mmHg 51%
    09:00 +28°C° 0 mm 7 mps 761 mmHg 49%
    10:00 +30°C° 0 mm 6 mps 760 mmHg 45%
    11:00 +33°C° 0 mm 6 mps 760 mmHg 42%
    12:00 +34°C° 0 mm 5 mps 759 mmHg 38%
    13:00 +34°C° 0 mm 5 mps 759 mmHg 37%
    14:00 +35°C° 0 mm 4 mps 758 mmHg 35%
    15:00 +35°C° 0 mm 4 mps 757 mmHg 33%
    16:00 +34°C° 0 mm 3 mps 758 mmHg 36%
    17:00 +31°C° 0 mm 3 mps 758 mmHg 39%
    18:00 +30°C° 0 mm 2 mps 758 mmHg 42%
    19:00 +29°C° 0 mm 3 mps 758 mmHg 43%
    20:00 +28°C° 0 mm 3 mps 759 mmHg 44%
    21:00 +27°C° 0 mm 4 mps 760 mmHg 45%
    22:00 +27°C° 0 mm 4 mps 760 mmHg 46%
    23:00 +26°C° 0 mm 4 mps 760 mmHg 47%

    29 May, Wednesday

    Time Temperature Precipitation Wind Pressure Humidity
    00:00 +26°C° 0 mm 5 mps 760 mmHg 49%
    01:00 +25°C° 0 mm 5 mps 759 mmHg 50%
    02:00 +25°C° 0 mm 5 mps 759 mmHg 52%
    03:00 +25°C° 0 mm 5 mps 759 mmHg 54%
    04:00 +23°C° 0 mm 5 mps 759 mmHg 57%
    05:00 +23°C° 0 mm 5 mps 759 mmHg 60%
    06:00 +22°C° 0 mm 5 mps 759 mmHg 62%
    07:00 +24°C° 0 mm 6 mps 760 mmHg 59%
    08:00 +26°C° 0 mm 6 mps 760 mmHg 55%
    09:00 +28°C° 0 mm 6 mps 761 mmHg 52%
    10:00 +30°C° 0 mm 5 mps 760 mmHg 47%
    11:00 +33°C° 0 mm 5 mps 759 mmHg 42%
    12:00 +35°C° 0 mm 4 mps 759 mmHg 37%
    13:00 +35°C° 0 mm 3 mps 758 mmHg 35%
    14:00 +35°C° 0 mm 3 mps 757 mmHg 34%
    15:00 +36°C° 0 mm 2 mps 757 mmHg 33%
    16:00 +34°C° 0 mm 2 mps 757 mmHg 38%
    17:00 +32°C° 0 mm 2 mps 757 mmHg 43%
    18:00 +30°C° 0 mm 2 mps 757 mmHg 48%
    19:00 +29°C° 0 mm 2 mps 758 mmHg 52%
    20:00 +29°C° 0 mm 2 mps 759 mmHg 55%
    21:00 +28°C° 0 mm 1 mps 759 mmHg 58%
    22:00 +28°C° 0 mm 2 mps 759 mmHg 58%
    23:00 +28°C° 0 mm 2 mps 759 mmHg 58%

    30 May, Thursday

    Time Temperature Precipitation Wind Pressure Humidity
    00:00 +27°C° 0 mm 3 mps 759 mmHg 58%
    01:00 +27°C° 0 mm 3 mps 759 mmHg 56%
    02:00 +27°C° 0 mm 3 mps 759 mmHg 55%
    03:00 +26°C° 0 mm 3 mps 759 mmHg 53%
    04:00 +26°C° 0 mm 4 mps 759 mmHg 54%
    05:00 +25°C° 0 mm 4 mps 759 mmHg 54%
    06:00 +25°C° 0 mm 4 mps 759 mmHg 55%
    07:00 +26°C° 0 mm 5 mps 760 mmHg 53%
    08:00 +28°C° 0 mm 6 mps 760 mmHg 50%
    09:00 +29°C° 0 mm 6 mps 760 mmHg 48%
    10:00 +32°C° 0 mm 6 mps 760 mmHg 43%
    11:00 +33°C° 0 mm 5 mps 760 mmHg 39%
    12:00 +35°C° 0 mm 4 mps 759 mmHg 35%
    13:00 +35°C° 0 mm 4 mps 759 mmHg 34%
    14:00 +36°C° 0 mm 4 mps 758 mmHg 33%
    15:00 +36°C° 0 mm 3 mps 757 mmHg 33%
    16:00 +35°C° 0 mm 3 mps 758 mmHg 36%
    17:00 +33°C° 0 mm 3 mps 758 mmHg 39%
    18:00 +31°C° 0 mm 3 mps 758 mmHg 42%
    19:00 +30°C° 0 mm 4 mps 759 mmHg 43%
    20:00 +29°C° 0 mm 6 mps 760 mmHg 43%
    21:00 +29°C° 0 mm 7 mps 760 mmHg 44%
    22:00 +28°C° 0 mm 7 mps 760 mmHg 43%
    23:00 +27°C° 0 mm 8 mps 760 mmHg 43%
    Show more